Regional Weather Roundup
Issued by NWS Jackson, KY

Home | Current Version | Previous Version | Graphics & Text | Print | Product List | Glossary On
Versions: 1 2 3 4 5 6 7 8 9 10 11 12 13 14 15 16 17 18 19 20 21 22 23 24 25 26 27 28 29 30 31 32 33 34 35 36 37 38 39 40 41 42 43 44 45 46 47 48 49 50
000
ASUS43 KJKL 252110
RWRJKL

EAST KENTUCKY HOURLY WEATHER ROUNDUP
NATIONAL WEATHER SERVICE JACKSON KY
500 PM EDT MON JUL 25 2016

NOTE: "FAIR" INDICATES FEW OR NO CLOUDS BELOW 12,000 FEET WITH
NO SIGNIFICANT WEATHER AND/OR OBSTRUCTIONS TO VISIBILITY.

* THESE REPORTS ARE NOT UNDER NWS QUALITY CONTROL AND MAY NOT
  REPORT WEATHER SUCH AS PRECIPITATION AND FOG.

KYZ079-080-083-085-087-088-110-112-115-119-120-252200
...EASTERN KENTUCKY...

CITY           SKY/WX    TMP DP  RH WIND       PRES   REMARKS
JACKSON        CLOUDY    75  71  87 VRB3      30.04S
LONDON         MOSUNNY   90  69  50 W10       30.01S HX  94
SOMERSET*      CLOUDY    90  70  51 W8        30.01S HX  95
MONTICELLO*    MOSUNNY  N/A N/A N/A W12G17    30.02S
WILLIAMSBURG*  PTCLDY    90  72  55 W6        30.02F HX  96
MIDDLESBORO*   CLOUDY    82  72  71 N5        30.03R
HARLAN APT*      N/A     91  68  46 SW7       30.02F HX  95
PIKE CO APT*   CLOUDY    83  73  70 N8        30.02R THUNDER
BIG SANDY APT* CLOUDY    83  72  69 NW5       30.02R
MOREHEAD APT*  MOCLDY    77  72  83 SW9       30.03S
ASHLAND*       MOSUNNY   90  75  62 W5        29.94F HX 100
$$

KYZ035-036-041-042-044-050-067-078-099-252200
...CENTRAL KENTUCKY...

CITY           SKY/WX    TMP DP  RH WIND       PRES   REMARKS
MT STERLING*   CLOUDY    75  73  94 CALM      30.03F
FLEMING/MASON* LGT RAIN  76  74  93 SE8G16    30.05R
DANVILLE*      PTSUNNY   79  75  89 NE12      30.02S
RICHMOND*      PTSUNNY   82  72  69 N6        30.03S
LEXINGTON      CLOUDY    83  75  77 S6        30.01F HX  90
FRANKFORT      MOSUNNY   86  75  69 VRB6      29.99R HX  95
LOUISVILLE     LGT RAIN  79  73  82 S5        30.00S
LEBANON*         N/A     90  73  58 SW6       29.99S HX  98
GLASGOW*       CLOUDY    91  74  58 SW6       29.99S HX 100
BOWLING GREEN  CLOUDY    89  75  63 S8        29.98S HX  99
$$

KYZ091>093-OHZ055-061-077-WVZ005-015-034-035-042-252200
...SOUTHERN OHIO/WEST VIRGINIA...

CITY           SKY/WX    TMP DP  RH WIND       PRES   REMARKS
COVINGTON      PTSUNNY   93  70  46 NW8       29.98R HX  99
COLUMBUS       PTSUNNY   90  70  51 VRB6      29.94F HX  95
DAYTON         PTSUNNY   89  66  46 W13       29.99F HX  91
WILMINGTON     MOSUNNY   91  68  46 NW8G22    29.97S HX  95
HUNTINGTON     TSTM      88  74  63 SW8       29.97S HX  96
CHARLESTON     PTSUNNY   90  72  55 W6        29.97S HX  97
PINEVILLE*       N/A     85  74  70 MISG      30.09R HX  92
BECKLEY        PTSUNNY   84  69  60 W6        30.08S
BLUEFIELD        N/A     84  70  62 NW9       30.12S
LOGAN CO APT*    N/A     88  73  62 VRB5      30.02R HX  96
$$

VAZ002-007-008-TNZ017-027-036-066-071-252200
...SOUTHWEST VIRGINIA/EAST TENNESSEE...

CITY           SKY/WX    TMP DP  RH WIND       PRES   REMARKS
WISE*          CLOUDY    84  63  48 NW5       30.11S
JONESVILLE*      N/A     91  72  52 SE7       30.03F HX  98
ABINGDON*        N/A     93  65  39 NW3       30.05F HX  94
BRISTOL        MOSUNNY   93  67  42 VRB3      30.00F HX  96
MORRISTOWN*    CLEAR     93  70  46 SW9G15    29.99F HX  99
SEVIERVILLE*   CLEAR     90  68  48 VRB3      29.99F HX  93
KNOXVILLE      MOSUNNY   96  65  35 W8        29.98F HX  98
OAK RIDGE      SUNNY     96  66  37 W8        30.00F HX  99
CROSSVILLE     CLOUDY    89  68  49 W9        30.07F HX  93
NASHVILLE      CLOUDY    91  71  51 SW7       29.98F HX  97
$$

...KEY TO REMARKS...
VSB - VISIBILITY IN MILES
WCI - WIND CHILL INDEX
HX  - HEAT INDEX

$$



USA.gov is the U.S. government's official web portal to all federal, state and local government web resources and services.